CW8371 Weather Reports


Display with metric or nautical units.
time (UTC)temp
F
wind
direction
speed
MPH
gust
MPH
rain 1hr
in
rain 24hr
in
rain mn
in
humidity
%
barometer
mb
20210514032502 46 0 0.0 0.0 0.00 0.00 0.00 74 1020.1
20210514032003 47 0 0.0 0.0 0.00 0.00 0.00 74 1020.1
20210514031502 47 0 0.0 0.0 0.00 0.00 0.00 72 1020.1
20210514031003 47 0 0.0 0.0 0.00 0.00 0.00 72 1020.1
20210514030502 47 0 0.0 0.0 0.00 0.00 0.00 71 1020.1
20210514030002 47 0 0.0 0.0 0.00 0.00 0.00 71 1020.0
20210514025502 48 0 0.0 0.0 0.00 0.00 0.00 72 1020.1
20210514025002 48 0 0.0 0.0 0.00 0.00 0.00 71 1020.0
20210514024502 48 0 0.0 0.0 0.00 0.00 0.00 70 1020.0
20210514024002 48 0 0.0 0.0 0.00 0.00 0.00 70 1019.9
20210514023502 49 0 0.0 0.0 0.00 0.00 0.00 68 1019.9
20210514023003 49 0 0.0 0.0 0.00 0.00 0.00 68 1019.9
20210514022502 49 0 0.0 0.0 0.00 0.00 0.00 67 1019.9
20210514022002 49 0 0.0 0.0 0.00 0.00 0.00 67 1019.8
20210514021502 50 0 0.0 0.0 0.00 0.00 0.00 66 1019.8
20210514021003 50 0 0.0 0.0 0.00 0.00 0.00 64 1019.8
20210514020502 50 0 0.0 0.0 0.00 0.00 0.00 64 1019.8
20210514020002 50 0 0.0 0.0 0.00 0.00 0.00 64 1019.8
20210514015502 51 0 0.0 0.0 0.00 0.00 0.00 63 1019.7
20210514015002 51 0 0.0 0.0 0.00 0.00 0.00 62 1019.6
20210514014502 51 0 0.0 0.0 0.00 0.00 0.00 63 1019.5
20210514014002 52 0 0.0 0.0 0.00 0.00 0.00 63 1019.6
20210514013502 52 0 0.0 0.0 0.00 0.00 0.00 62 1019.6
20210514013002 52 0 0.0 0.0 0.00 0.00 0.00 62 1019.6
20210514012502 53 0 0.0 0.0 0.00 0.00 0.00 62 1019.5
20210514012002 53 0 0.0 0.0 0.00 0.00 0.00 60 1019.4
20210514011502 54 0 0.0 0.0 0.00 0.00 0.00 60 1019.3
20210514011002 54 0 0.0 0.0 0.00 0.00 0.00 59 1019.3
20210514010502 54 0 0.0 0.0 0.00 0.00 0.00 59 1019.1
20210514010003 55 0 0.0 0.0 0.00 0.00 0.00 58 1019.1
20210514005502 55 0 0.0 0.0 0.00 0.00 0.00 59 1019.0
20210514005002 56 0 0.0 0.0 0.00 0.00 0.00 56 1019.1
20210514004502 56 0 0.0 0.0 0.00 0.00 0.00 55 1019.0
20210514004002 57 0 0.0 0.0 0.00 0.00 0.00 54 1018.9
20210514003502 57 0 0.0 0.0 0.00 0.00 0.00 52 1018.9
20210514003037 58 0 0.0 0.0 0.00 0.00 0.00 50 1018.8
20210514002503 58 0 0.0 0.0 0.00 0.00 0.00 50 1018.7
20210514002002 59 0 0.0 0.0 0.00 0.00 0.00 47 1018.7
20210514001502 60 0 0.0 0.0 0.00 0.00 0.00 46 1018.7
20210514001003 60 0 0.0 0.0 0.00 0.00 0.00 45 1018.6
20210514000502 61 0 0.0 0.0 0.00 0.00 0.00 44 1018.6
20210513235502 62 0 0.0 0.0 0.00 0.00 0.00 42 1018.6
20210513235003 63 0 0.0 0.0 0.00 0.00 0.00 41 1018.5
20210513234503 64 0 0.0 0.0 0.00 0.00 0.00 40 1018.6
20210513234002 65 0 0.0 0.0 0.00 0.00 0.00 38 1018.5
20210513233503 65 0 0.0 0.0 0.00 0.00 0.00 38 1018.5
20210513233002 66 0 0.0 0.0 0.00 0.00 0.00 40 1018.4
20210513232503 67 0 0.0 0.0 0.00 0.00 0.00 37 1018.4
20210513232003 67 0 0.0 0.0 0.00 0.00 0.00 38 1018.4
20210513231503 67 301 0.0 3.0 0.00 0.00 0.00 36 1018.3
20210513231003 67 300 0.0 3.0 0.00 0.00 0.00 34 1018.3
20210513230503 68 300 0.0 3.0 0.00 0.00 0.00 32 1018.2
20210513230003 68 300 0.0 1.0 0.00 0.00 0.00 32 1018.2
20210513225502 68 0 0.0 0.0 0.00 0.00 0.00 31 1018.2
20210513225002 68 0 0.0 0.0 0.00 0.00 0.00 34 1018.2
20210513224502 68 0 0.0 0.0 0.00 0.00 0.00 32 1018.2
20210513224002 68 0 0.0 0.0 0.00 0.00 0.00 33 1018.1
20210513223502 68 0 0.0 0.0 0.00 0.00 0.00 31 1018.1
20210513223003 68 0 0.0 0.0 0.00 0.00 0.00 31 1018.2
20210513222502 68 0 0.0 0.0 0.00 0.00 0.00 27 1018.1
20210513222003 69 300 0.0 1.0 0.00 0.00 0.00 30 1018.1
20210513221502 68 300 1.0 4.0 0.00 0.00 0.00 33 1018.1
20210513221002 68 300 2.0 8.0 0.00 0.00 0.00 31 1018.1
20210513220502 68 300 1.0 8.0 0.00 0.00 0.00 30 1018.1
20210513220003 68 300 0.0 4.0 0.00 0.00 0.00 29 1018.1
20210513215502 68 300 1.0 7.0 0.00 0.00 0.00 28 1018.2
20210513215002 69 299 1.0 7.0 0.00 0.00 0.00 28 1018.2
20210513214503 69 288 1.0 7.0 0.00 0.00 0.00 30 1018.2
20210513214003 69 287 1.0 7.0 0.00 0.00 0.00 29 1018.1
20210513213503 69 286 1.0 4.0 0.00 0.00 0.00 28 1018.2
20210513213004 70 286 1.0 4.0 0.00 0.00 0.00 26 1018.2
20210513212503 70 286 1.0 4.0 0.00 0.00 0.00 29 1018.2
20210513212003 69 286 1.0 4.0 0.00 0.00 0.00 29 1018.3
20210513211503 68 287 2.0 8.0 0.00 0.00 0.00 28 1018.2
20210513211003 70 287 2.0 8.0 0.00 0.00 0.00 28 1018.2
20210513210502 70 287 1.0 3.0 0.00 0.00 0.00 30 1018.3
20210513210004 69 289 0.0 4.0 0.00 0.00 0.00 32 1018.4
20210513205504 68 291 0.0 5.0 0.00 0.00 0.00 32 1018.4
20210513205002 68 291 1.0 5.0 0.00 0.00 0.00 30 1018.3
20210513204503 69 293 3.0 10.0 0.00 0.00 0.00 28 1018.3
20210513204002 69 297 4.0 11.0 0.00 0.00 0.00 29 1018.3
20210513203502 69 296 4.0 11.0 0.00 0.00 0.00 27 1018.3
20210513203004 69 294 3.0 11.0 0.00 0.00 0.00 28 1018.4
20210513202503 69 300 2.0 8.0 0.00 0.00 0.00 31 1018.4
20210513202002 68 306 2.0 8.0 0.00 0.00 0.00 30 1018.4
20210513201503 68 308 2.0 7.0 0.00 0.00 0.00 28 1018.4
20210513201003 69 306 2.0 8.0 0.00 0.00 0.00 29 1018.5
20210513200503 70 303 1.0 8.0 0.00 0.00 0.00 30 1018.4
20210513200003 68 300 1.0 5.0 0.00 0.00 0.00 30 1018.5
20210513195503 68 299 2.0 8.0 0.00 0.00 0.00 32 1018.7
20210513195002 68 295 4.0 13.0 0.00 0.00 0.00 31 1018.7
20210513194502 68 300 6.0 13.0 0.00 0.00 0.00 28 1018.7
20210513194003 69 300 6.0 13.0 0.00 0.00 0.00 30 1018.8
20210513193504 69 296 6.0 14.0 0.00 0.00 0.00 28 1018.9
20210513193003 68 301 3.0 14.0 0.00 0.00 0.00 30 1018.9
20210513192503 68 317 3.0 11.0 0.00 0.00 0.00 29 1018.9
20210513192002 68 310 5.0 16.0 0.00 0.00 0.00 31 1019.0
20210513191503 69 304 4.0 16.0 0.00 0.00 0.00 29 1019.0
20210513191003 68 306 3.0 11.0 0.00 0.00 0.00 29 1019.1
20210513190502 68 307 4.0 10.0 0.00 0.00 0.00 30 1019.2
20210513190004 68 303 5.0 10.0 0.00 0.00 0.00 31 1019.2
20210513185503 68 300 5.0 12.0 0.00 0.00 0.00 32 1019.2
20210513185002 67 307 5.0 14.0 0.00 0.00 0.00 34 1019.3
20210513184502 66 314 4.0 14.0 0.00 0.00 0.00 32 1019.4
20210513184003 66 315 2.0 5.0 0.00 0.00 0.00 33 1019.5
20210513183502 66 315 1.0 5.0 0.00 0.00 0.00 31 1019.5
20210513183003 66 315 2.0 5.0 0.00 0.00 0.00 31 1019.6
20210513182503 66 318 3.0 6.0 0.00 0.00 0.00 32 1019.7
20210513182003 67 320 3.0 6.0 0.00 0.00 0.00 30 1019.6
20210513181503 67 319 3.0 6.0 0.00 0.00 0.00 30 1019.8
20210513181003 67 320 4.0 8.0 0.00 0.00 0.00 34 1019.8
20210513180502 67 319 4.0 11.0 0.00 0.00 0.00 31 1019.8
20210513180003 68 313 4.0 11.0 0.00 0.00 0.00 31 1019.7
20210513175502 68 303 5.0 16.0 0.00 0.00 0.00 32 1019.7
20210513175003 67 304 5.0 16.0 0.00 0.00 0.00 36 1019.9
20210513174503 66 313 3.0 12.0 0.00 0.00 0.00 30 1019.8
20210513174002 65 303 4.0 12.0 0.00 0.00 0.00 35 1019.9
20210513173503 65 317 4.0 12.0 0.00 0.00 0.00 34 1019.9
20210513173003 65 328 3.0 12.0 0.00 0.00 0.00 32 1019.8
20210513172503 65 301 2.0 7.0 0.00 0.00 0.00 33 1019.8
20210513172003 65 298 2.0 5.0 0.00 0.00 0.00 35 1020.0
20210513171003 65 293 3.0 7.0 0.00 0.00 0.00 34 1020.1
20210513170503 65 292 1.0 5.0 0.00 0.00 0.00 34 1020.0
20210513170003 65 292 2.0 11.0 0.00 0.00 0.00 36 1020.0
20210513165503 65 293 3.0 11.0 0.00 0.00 0.00 34 1020.0
20210513165003 66 295 3.0 10.0 0.00 0.00 0.00 35 1020.0
20210513164502 66 294 4.0 11.0 0.00 0.00 0.00 36 1020.1
20210513164003 66 296 4.0 12.0 0.00 0.00 0.00 37 1020.2
20210513163503 66 298 3.0 12.0 0.00 0.00 0.00 36 1020.3
20210513163002 65 299 2.0 8.0 0.00 0.00 0.00 34 1020.4
20210513162503 65 297 2.0 10.0 0.00 0.00 0.00 35 1020.5
20210513162003 64 296 4.0 12.0 0.00 0.00 0.00 39 1020.6
20210513161503 64 296 4.0 14.0 0.00 0.00 0.00 37 1020.6
20210513161003 64 295 2.0 14.0 0.00 0.00 0.00 35 1020.6
20210513160503 64 294 1.0 7.0 0.00 0.00 0.00 36 1020.6
20210513160003 64 294 1.0 4.0 0.00 0.00 0.00 35 1020.6
20210513155502 64 296 3.0 13.0 0.00 0.00 0.00 38 1020.6
20210513155003 64 298 3.0 13.0 0.00 0.00 0.00 37 1020.6
20210513154504 64 302 3.0 10.0 0.00 0.00 0.00 37 1020.5
20210513154002 64 303 3.0 10.0 0.00 0.00 0.00 35 1020.5
20210513153503 64 306 4.0 10.0 0.00 0.00 0.00 34 1020.6
20210513153003 65 308 3.0 10.0 0.00 0.00 0.00 34 1020.6
20210513152503 66 305 3.0 9.0 0.00 0.00 0.00 35 1020.5
20210513152003 66 303 3.0 7.0 0.00 0.00 0.00 35 1020.5
20210513151503 66 293 3.0 10.0 0.00 0.00 0.00 38 1020.6
20210513151003 65 302 4.0 10.0 0.00 0.00 0.00 34 1020.7
20210513150502 65 316 2.0 10.0 0.00 0.00 0.00 33 1020.7
20210513150003 65 310 3.0 8.0 0.00 0.00 0.00 35 1020.6
20210513145502 65 311 3.0 8.0 0.00 0.00 0.00 34 1020.7
20210513145004 65 310 4.0 10.0 0.00 0.00 0.00 36 1020.7
20210513144503 64 306 5.0 12.0 0.00 0.00 0.00 38 1020.8
20210513144003 64 301 5.0 12.0 0.00 0.00 0.00 37 1020.8
20210513143503 64 300 4.0 11.0 0.00 0.00 0.00 37 1020.8
20210513143003 65 307 2.0 10.0 0.00 0.00 0.00 42 1020.8
20210513142503 64 306 1.0 8.0 0.00 0.00 0.00 37 1020.7
20210513142003 64 301 2.0 8.0 0.00 0.00 0.00 40 1020.8
20210513141503 63 298 3.0 11.0 0.00 0.00 0.00 42 1020.7
20210513141003 63 295 3.0 11.0 0.00 0.00 0.00 38 1020.9
20210513140503 63 294 3.0 7.0 0.00 0.00 0.00 43 1020.9
20210513140004 62 294 1.0 7.0 0.00 0.00 0.00 42 1020.9
20210513135503 62 296 3.0 12.0 0.00 0.00 0.00 48 1020.9
20210513135003 62 299 4.0 12.0 0.00 0.00 0.00 48 1021.0
20210513134502 61 304 2.0 8.0 0.00 0.00 0.00 50 1021.1
20210513134003 61 304 2.0 7.0 0.00 0.00 0.00 49 1021.1
20210513133503 61 304 2.0 5.0 0.00 0.00 0.00 50 1021.1
20210513133003 60 304 2.0 5.0 0.00 0.00 0.00 47 1021.2
20210513132502 60 304 2.0 5.0 0.00 0.00 0.00 51 1021.1
20210513132003 60 304 2.0 7.0 0.00 0.00 0.00 52 1021.1
20210513131503 59 304 2.0 7.0 0.00 0.00 0.00 56 1021.3
20210513131003 59 304 1.0 5.0 0.00 0.00 0.00 53 1021.3
20210513130503 58 304 1.0 4.0 0.00 0.00 0.00 53 1021.3
20210513130003 58 304 1.0 4.0 0.00 0.00 0.00 56 1021.4
20210513125503 57 304 1.0 4.0 0.00 0.00 0.00 58 1021.4
20210513125004 57 304 1.0 4.0 0.00 0.00 0.00 61 1021.4
20210513124503 56 304 0.0 1.0 0.00 0.00 0.00 62 1021.4
20210513124003 56 304 0.0 1.0 0.00 0.00 0.00 66 1021.4
20210513123503 55 304 0.0 1.0 0.00 0.00 0.00 67 1021.4
20210513123003 55 0 0.0 0.0 0.00 0.00 0.00 68 1021.3
20210513122503 54 0 0.0 0.0 0.00 0.00 0.00 69 1021.3
20210513122003 54 0 0.0 0.0 0.00 0.00 0.00 73 1021.5
20210513121503 53 0 0.0 0.0 0.00 0.00 0.00 74 1021.5
20210513121003 52 0 0.0 0.0 0.00 0.00 0.00 77 1021.5
20210513120503 51 0 0.0 0.0 0.00 0.00 0.00 79 1021.5
20210513120003 50 0 0.0 0.0 0.00 0.00 0.00 83 1021.5
20210513115503 49 0 0.0 0.0 0.00 0.00 0.00 85 1021.5
20210513115003 48 0 0.0 0.0 0.00 0.00 0.00 86 1021.6
20210513114503 47 0 0.0 0.0 0.00 0.00 0.00 87 1021.6
20210513114003 47 0 0.0 0.0 0.00 0.00 0.00 88 1021.6
20210513113503 46 0 0.0 0.0 0.00 0.00 0.00 89 1021.5
20210513113003 45 0 0.0 0.0 0.00 0.00 0.00 91 1021.5
20210513112504 44 0 0.0 0.0 0.00 0.00 0.00 91 1021.4
20210513112003 43 0 0.0 0.0 0.00 0.00 0.00 92 1021.4
20210513111504 43 0 0.0 0.0 0.00 0.00 0.00 92 1021.5
20210513111003 42 0 0.0 0.0 0.00 0.00 0.00 93 1021.5
20210513110503 41 0 0.0 0.0 0.00 0.00 0.00 93 1021.5
20210513110003 40 0 0.0 0.0 0.00 0.00 0.00 93 1021.4
20210513105503 40 0 0.0 0.0 0.00 0.00 0.00 93 1021.3
20210513105003 39 0 0.0 0.0 0.00 0.00 0.00 93 1021.4
20210513104503 39 0 0.0 0.0 0.00 0.00 0.00 93 1021.3
20210513104003 38 0 0.0 0.0 0.00 0.00 0.00 93 1021.2
20210513103504 38 0 0.0 0.0 0.00 0.00 0.00 93 1021.2
20210513103003 38 0 0.0 0.0 0.00 0.00 0.00 92 1021.2
20210513102503 38 0 0.0 0.0 0.00 0.00 0.00 92 1021.2
20210513102003 37 0 0.0 0.0 0.00 0.00 0.00 92 1021.1
20210513101504 37 0 0.0 0.0 0.00 0.00 0.00 92 1021.1
20210513101003 37 0 0.0 0.0 0.00 0.00 0.00 92 1021.0
20210513100503 37 0 0.0 0.0 0.00 0.00 0.00 92 1021.0
20210513100003 37 0 0.0 0.0 0.00 0.00 0.00 92 1021.0
20210513095503 37 0 0.0 0.0 0.00 0.00 0.00 91 1021.0
20210513095002 37 0 0.0 0.0 0.00 0.00 0.00 91 1021.0
20210513094503 38 0 0.0 0.0 0.00 0.00 0.00 91 1020.9
20210513094003 38 0 0.0 0.0 0.00 0.00 0.00 91 1020.9
20210513093503 38 0 0.0 0.0 0.00 0.00 0.00 91 1020.9
20210513093003 38 0 0.0 0.0 0.00 0.00 0.00 91 1020.8
20210513092503 38 0 0.0 0.0 0.00 0.00 0.00 91 1020.6
20210513092003 38 0 0.0 0.0 0.00 0.00 0.00 90 1020.7
20210513091503 38 0 0.0 0.0 0.00 0.00 0.00 90 1020.7
20210513091003 38 0 0.0 0.0 0.00 0.00 0.00 90 1020.7
20210513090503 39 0 0.0 0.0 0.00 0.00 0.00 90 1020.7
20210513090003 39 0 0.0 0.0 0.00 0.00 0.00 90 1020.7
20210513085502 39 0 0.0 0.0 0.00 0.00 0.00 90 1020.6
20210513085003 39 0 0.0 0.0 0.00 0.00 0.00 90 1020.7
20210513084503 39 0 0.0 0.0 0.00 0.00 0.00 90 1020.7
20210513084003 39 0 0.0 0.0 0.00 0.00 0.00 89 1020.7
20210513083503 39 0 0.0 0.0 0.00 0.00 0.00 89 1020.7
20210513083003 40 0 0.0 0.0 0.00 0.00 0.00 89 1020.7
20210513082503 40 0 0.0 0.0 0.00 0.00 0.00 89 1020.6
20210513082003 40 0 0.0 0.0 0.00 0.00 0.00 88 1020.6
20210513081503 40 0 0.0 0.0 0.00 0.00 0.00 88 1020.7
20210513081003 40 0 0.0 0.0 0.00 0.00 0.00 88 1020.7
20210513080503 40 0 0.0 0.0 0.00 0.00 0.00 88 1020.6
20210513080003 40 0 0.0 0.0 0.00 0.00 0.00 88 1020.6
20210513075503 40 0 0.0 0.0 0.00 0.00 0.00 87 1020.6
20210513075003 41 0 0.0 0.0 0.00 0.00 0.00 87 1020.6
20210513074503 41 0 0.0 0.0 0.00 0.00 0.00 87 1020.6
20210513074003 41 0 0.0 0.0 0.00 0.00 0.00 87 1020.6
20210513073504 41 0 0.0 0.0 0.00 0.00 0.00 86 1020.6
20210513073004 41 0 0.0 0.0 0.00 0.00 0.00 86 1020.6
20210513072504 42 0 0.0 0.0 0.00 0.00 0.00 86 1020.6
20210513072003 42 0 0.0 0.0 0.00 0.00 0.00 85 1020.7
20210513071503 42 0 0.0 0.0 0.00 0.00 0.00 85 1020.7
20210513071003 42 0 0.0 0.0 0.00 0.00 0.00 84 1020.7
20210513070503 42 0 0.0 0.0 0.00 0.00 0.00 84 1020.6
20210513070003 42 0 0.0 0.0 0.00 0.00 0.00 83 1020.7
20210513065503 43 0 0.0 0.0 0.00 0.00 0.00 83 1020.6
20210513065003 43 0 0.0 0.0 0.00 0.00 0.00 82 1020.5
20210513064504 43 0 0.0 0.0 0.00 0.00 0.00 82 1020.5
20210513064003 43 0 0.0 0.0 0.00 0.00 0.00 81 1020.5
20210513063503 43 0 0.0 0.0 0.00 0.00 0.00 81 1020.5
20210513063003 43 0 0.0 0.0 0.00 0.00 0.00 81 1020.5
20210513062503 44 0 0.0 0.0 0.00 0.00 0.00 81 1020.6
20210513062003 44 0 0.0 0.0 0.00 0.00 0.00 80 1020.6
20210513061503 44 0 0.0 0.0 0.00 0.00 0.00 80 1020.6
20210513061003 44 0 0.0 0.0 0.00 0.00 0.00 80 1020.5
20210513060503 44 0 0.0 0.0 0.00 0.00 0.00 80 1020.5
20210513060004 44 0 0.0 0.0 0.00 0.00 0.00 80 1020.6
20210513055504 44 0 0.0 0.0 0.00 0.00 0.00 80 1020.6
20210513055004 44 0 0.0 0.0 0.00 0.00 0.00 80 1020.6
20210513054504 44 0 0.0 0.0 0.00 0.00 0.00 79 1020.6
20210513054004 44 0 0.0 0.0 0.00 0.00 0.00 80 1020.6
20210513053503 45 0 0.0 0.0 0.00 0.00 0.00 79 1020.7
20210513053003 45 0 0.0 0.0 0.00 0.00 0.00 79 1020.6
20210513052503 45 0 0.0 0.0 0.00 0.00 0.00 79 1020.7
20210513052003 45 0 0.0 0.0 0.00 0.00 0.00 79 1020.7
20210513051503 45 0 0.0 0.0 0.00 0.00 0.00 79 1020.7
20210513051003 45 0 0.0 0.0 0.00 0.00 0.00 78 1020.8
20210513050503 45 0 0.0 0.0 0.00 0.00 0.00 78 1020.8
20210513050003 45 0 0.0 0.0 0.00 0.00 0.00 78 1020.8
20210513045503 46 0 0.0 0.0 0.00 0.00 0.00 77 1020.8
20210513045003 46 0 0.0 0.0 0.00 0.00 0.00 77 1020.8
20210513044503 46 0 0.0 0.0 0.00 0.00 0.00 77 1020.8
20210513044004 46 0 0.0 0.0 0.00 0.00 0.00 76 1020.8
20210513043503 46 0 0.0 0.0 0.00 0.00 0.00 76 1020.9
20210513043003 46 0 0.0 0.0 0.00 0.00 0.00 75 1020.9
20210513042503 47 0 0.0 0.0 0.00 0.00 0.00 74 1021.0
20210513042003 47 0 0.0 0.0 0.00 0.00 0.00 73 1020.9
20210513041503 47 0 0.0 0.0 0.00 0.00 0.00 73 1020.8
20210513041004 48 0 0.0 0.0 0.00 0.00 0.00 72 1020.9
20210513040503 48 0 0.0 0.0 0.00 0.00 0.00 72 1020.9
20210513040005 48 0 0.0 0.0 0.00 0.00 0.00 72 1020.9
20210513035503 48 0 0.0 0.0 0.00 0.00 0.00 71 1020.9
20210513035003 48 0 0.0 0.0 0.00 0.00 0.00 70 1020.9
20210513034503 49 0 0.0 0.0 0.00 0.00 0.00 70 1020.9
20210513034003 49 0 0.0 0.0 0.00 0.00 0.00 69 1020.9
20210513033503 49 0 0.0 0.0 0.00 0.00 0.00 69 1020.9
20210513033003 49 0 0.0 0.0 0.00 0.00 0.00 69 1020.9